Location: Chicoutimi
(48.4330°N, 71.0670°W)
Time: 21:22:53
(UTC-04:00)

ISS - Visible Passes

Search period start: 03 August 2015 00:00
Search period end: 13 August 2015 00:00
Orbit: 401 x 403 km, 51.6° (Epoch: 03 August)

Date Brightness Start Highest point End Pass type
(mag) Time Alt. Az. Time Alt. Az. Time Alt. Az.
03 Aug -1.2 00:31:34 10° WNW 00:32:59 23° WNW 00:32:59 23° WNW visible
03 Aug -3.1 22:01:41 10° WSW 22:04:57 72° NNW 22:08:12 10° ENE visible
03 Aug -2.3 23:38:28 10° WNW 23:41:38 45° N 23:41:46 45° N visible
04 Aug -3.4 21:08:38 10° WSW 21:11:53 80° SSE 21:15:10 10° ENE visible
04 Aug -2.3 22:45:19 10° W 22:48:29 46° N 22:50:30 19° ENE visible
05 Aug -1.0 00:21:57 10° WNW 00:23:05 20° WNW 00:23:05 20° WNW visible
05 Aug -2.5 21:52:08 10° W 21:55:20 52° N 21:58:33 10° ENE visible
05 Aug -2.4 23:28:53 10° WNW 23:31:46 48° NNW 23:31:46 48° NNW visible
06 Aug -2.9 20:58:58 10° W 21:02:13 66° NNW 21:05:29 10° ENE visible
06 Aug -2.3 22:35:45 10° WNW 22:38:55 46° N 22:40:26 25° ENE visible
07 Aug -0.7 00:12:16 10° WNW 00:13:01 16° WNW 00:13:01 16° WNW visible
07 Aug -2.3 21:42:35 10° WNW 21:45:45 45° N 21:48:55 10° ENE visible
07 Aug -2.4 23:19:11 10° WNW 23:21:40 46° NW 23:21:40 46° NW visible
08 Aug -2.4 20:49:22 10° W 20:52:34 50° N 20:55:46 10° ENE visible
08 Aug -2.7 22:26:05 10° WNW 22:29:18 53° N 22:30:19 36° ENE visible
09 Aug -0.4 00:02:34 10° WNW 00:02:54 12° WNW 00:02:54 12° WNW visible
09 Aug -2.4 21:32:56 10° WNW 21:36:07 46° N 21:38:59 12° E visible
09 Aug -2.1 23:09:25 10° WNW 23:11:33 37° WNW 23:11:33 37° WNW visible
10 Aug -2.3 20:39:44 10° WNW 20:42:54 45° N 20:46:04 10° ENE visible
10 Aug -3.3 22:16:18 10° WNW 22:19:34 75° NNE 22:20:12 53° E visible
11 Aug -2.8 21:23:10 10° WNW 21:26:24 56° NNE 21:28:53 16° E visible
11 Aug -1.6 22:59:41 10° WNW 23:01:28 27° W 23:01:28 27° W visible
12 Aug -3.4 22:06:29 10° WNW 22:09:45 68° SSW 22:10:09 59° SSE visible
